STARLINK-33999, 63857

Orbit data source: Space-Track

STARLINK-33999, 63857 is a payload satellite owned by SpaceX/Seattle (US) in LEO that was launched on Wed, 07 May 2025 UTC via an FALCON 9 launch vehicle from the Air Force Eastern Test Range (AFETR). Payload-class satellites include a variety of spacecraft equipped with specific instruments for various scientific and technological missions. These include communications satellites like Starlink; space stations such as the ISS; scientific satellites like the Hubble; Earth observation satellites from companies like Planet Labs, Umbra, and HawkEye 360; GPS; miniature CubeSats for education and research; and military/defense satellites.

Loading next visibility...
Identifier
63857, 2025-093X
Orbit
LEO
Country
Flag of USUS
Related business
Manufacturer
SpaceX/Seattle
Mission
Operational Commercial Communications
Bus & Motor
STARLINK V2MO, Unknown motor
Mass
575 kg wet, ~530 kg dry
Launch date (UTC)
2025-05-07 (7 months ago)
Launch vehicle
FALCON 9
Launch site
Air Force Eastern Test Range (AFETR)
Object type
Payload
Rocket body
Debris
Shape & HBR
Box + 2 Pan, 17.7 m
Radar Cross Section
36.964 m², Large (>1 m²)

Expand to show TLE details & history
Last TLE update: 8 hours ago

TLE from 8 hours ago
0 STARLINK-33999
1 63857U 25093X   25349.86416232  .00012387  00000-0  45885-3 0  9997
2 63857  42.9983 191.1370 0001133 268.0020  92.0702 15.27583544 35152
Epoch: 2025-12-15T20:44Z
TLE epoch observation values (Epoch: 2025-12-15T20:44:23.624Z)
Latitude
-0.00001°
Longitude
155.28195°
Altitude
482.842 km
Speed
7.626 km/s
True Right ascension
12h 44m 32s
True Declination
0° 00' 00"
Sunlit
Object was in daylight at epoch
Visualization orbit readout
Latitude
Unknown
Longitude
Unknown
Altitude
Unknown
Speed
Unknown
Apparent Right ascension
Unknown
Apparent Declination
Unknown
Sunlit
N/A
Visualization observer readout
Local Sidereal Time
03:26:43
Azimuth
Unknown
Elevation
Unknown
Doppler factor
Unknown
Orbital elements
Apogee altitude
485.762 km
Perigee altitude
484.206 km
Semi-major axis
6,863.121 km
Eccentricity
0.00011
Inclination
42.9983°
RAAN
191.137°
Arg. of periapsis
268.002°
True anomaly
92.08317°
Mean anomaly
92.0702°
Eccentric anomaly
92.07669°
Mean motion
3.81734 °/min
Orbital period
94.31 mins
BSTAR
0.00045885
Loading maneuver chart data...
Computing Atmospheric mass density...
Loading historical data...
Loading historical data...
Loading historical data...
Loading historical data...
Loading historical data...
Loading historical data...
Loading historical data...

Documentation

Showing up to 5 results
|